SCOUT A R/B, 2180

Orbit data source: Space-Track

SCOUT A R/B, 2180 is space debris in LEO originally from a launch on Thu, 19 May 1966 UTC launched from the Air Force Western Test Range (AFWTR). Debris objects in space refer to the collection of defunct objects orbiting the Earth. Examples of debris include non-operational satellites, rocket bodies, and fragments generated from explosions, collisions, or faulty payload assembly.

Loading next visibility...
Identifier
2180, 1966-041B
Orbit
LEO
Country
Flag of USUS
Related business
Manufacturer
ABL
Mission
Spacecraft
Bus & Motor
ALTAIR, Unknown motor
Mass
33 kg wet, 33 kg dry
Launch date (UTC)
1966-05-19 (60 years ago)
Launch vehicle
Unknown
Launch site
Air Force Western Test Range (AFWTR)
Object type
Payload
Rocket body
Debris
Shape & HBR
Unknown
Radar Cross Section
Medium (>0.1 m² and <1 m²)

Expand to show TLE details & history
Last TLE update: 12 hours ago

TLE from 12 hours ago
0 SCOUT A R/B
1 02180U 66041B   26104.36616352  .00000275  00000-0  17198-3 0  9996
2 02180  90.2210  80.9530 0078599 161.4535 198.9539 14.01086986 54337
Epoch: 2026-04-14T08:47Z
TLE epoch observation values (Epoch: 2026-04-14T08:47:16.528Z)
Latitude
0.00002°
Longitude
106.59069°
Altitude
947.149 km
Speed
7.351 km/s
True Right ascension
05h 23m 48s
True Declination
0° 00' 00"
Sunlit
Object was in daylight at epoch
Visualization orbit readout
Latitude
Unknown
Longitude
Unknown
Altitude
Unknown
Speed
Unknown
Apparent Right ascension
Unknown
Apparent Declination
Unknown
Sunlit
N/A
Visualization observer readout
Local Sidereal Time
03:44:07
Azimuth
Unknown
Elevation
Unknown
Doppler factor
Unknown
Orbital elements
Apogee altitude
944.112 km
Perigee altitude
829.906 km
Semi-major axis
7,265.146 km
Eccentricity
0.00786
Inclination
90.221°
RAAN
80.953°
Arg. of periapsis
161.4535°
True anomaly
198.66405°
Mean anomaly
198.9539°
Eccentric anomaly
198.80871°
Mean motion
3.50491 °/min
Orbital period
102.71 mins
BSTAR
0.00017198
Loading maneuver chart data...
Computing Atmospheric mass density...
Loading historical data...
Loading historical data...
Loading historical data...
Loading historical data...
Loading historical data...
Loading historical data...
Loading historical data...

Documentation

Showing up to 5 results
|